Overview Statistics Trail Chart Weather Telemetry Raw packets
 

This is the latest recevied weather packets stored in our database for station/object N0KWA. If no packets are shown the sender has not sent any weather packets the latest 10 day(s).

<< 66 67 68 69 70 71 72 >>
Time Temp. Humidity Pressure Rain* Wind** Luminosity Snow
1787958823 30.56° C 79% 1016.4 hPa 0 mm - 5 W/m² -
1787958519 30.56° C 80% 1016.1 hPa 0 mm - 6 W/m² -
1787958215 30.56° C 78% 1016.1 hPa 0 mm - 7 W/m² -
1787957908 31.11° C 76% 1016.3 hPa 0 mm - 9 W/m² -
1787957608 31.11° C 75% 1016.1 hPa 0 mm - 38 W/m² -
1787957298 31.11° C 72% 1016.1 hPa 0 mm - 11 W/m² -
1787956997 31.67° C 72% 1016 hPa 0 mm - 8 W/m² -
1787956697 31.67° C 73% 1015.9 hPa 0 mm - 8 W/m² -
1787956393 31.67° C 73% 1016 hPa 0 mm - 8 W/m² -
1787956088 31.67° C 72% 1016 hPa 0 mm - 9 W/m² -
1787955783 31.67° C 77% 1015.9 hPa 0 mm - 14 W/m² -
1787955479 31.67° C 76% 1016 hPa 0 mm - 23 W/m² -
1787955176 31.67° C 74% 1015.9 hPa 0 mm - 10 W/m² -
1787954868 31.67° C 73% 1016 hPa 0 mm - 10 W/m² -
1787954563 32.22° C 71% 1016 hPa 0 mm - 11 W/m² -
1787954262 32.22° C 71% 1016 hPa 0 mm - 11 W/m² -
1787953957 31.67° C 70% 1016.2 hPa 0 mm - 12 W/m² -
1787953656 31.67° C 70% 1016.4 hPa 0 mm - 12 W/m² -
1787953351 31.67° C 70% 1016.4 hPa 0 mm - 12 W/m² -
1787953049 31.67° C 72% 1016.5 hPa 0 mm - 14 W/m² -
1787952748 32.22° C 73% 1016.4 hPa 0 mm - 16 W/m² -
1787952443 32.22° C 75% 1016.5 hPa 0 mm - 15 W/m² -
1787952140 32.22° C 71% 1016.8 hPa 0 mm - 17 W/m² -
1787951838 32.22° C 73% 1016.8 hPa 0 mm - 41 W/m² -
1787951534 31.67° C 70% 1016.8 hPa 0 mm - 29 W/m² -

* Rain latest hour (hover to see other rain measurements)
** Current wind speed in m/s (hover to see current wind gust speed)